Location: Pianadetto
(44.4000°N, 10.1000°E)
Time: 23:12:00
(UTC+00:00)

COSMOS 2455 - Pass Details

Date: 26 May 2022
Orbit: 901 x 908 km, 67.1° (Epoch: 02 July)

Event Time Altitude Azimuth Distance (km) Brightness Sun altitude
Exits shadow 02:04:51 20° 218° (SW) 1,963 4.0 -14.1°
Maximum altitude 02:09:08 77° 302° (WNW) 935 2.9 -13.6°
Drops below altitude 10° 02:15:11 10° 29° (NNE) 2,600 6.6 -12.8°
Sets 02:17:43 0° 31° (NNE) 3,545 7.8 -12.5°
